FW9881 Weather Reports


time (UTC)temp
F
wind
direction
speed
knots
gust
knots
rain 1hr
in
rain 24hr
in
rain mn
in
humidity
%
barometer
mb
20260508211546 53 302 1.7 3.5 0.00 0.00 0.00 41 1012.3
20260508210546 52 271 0.9 2.6 0.00 0.00 0.00 40 1012.3
20260508204645 53 271 2.6 5.2 0.00 0.00 0.00 40 1012.2
20260508203703 53 242 2.6 5.2 0.00 0.00 0.00 39 1012.1
20260508202647 54 190 2.6 4.3 0.00 0.00 0.00 39 1012.0
20260508201646 53 185 2.6 4.3 0.00 0.00 0.00 39 1012.0
20260508201547 53 264 2.6 4.3 0.00 0.00 0.00 40 1012.1
20260508200544 52 294 2.6 6.1 0.00 0.00 0.00 37 1012.1
20260508195546 53 241 6.1 13.0 0.00 0.00 0.00 37 1011.9
20260508194644 54 236 6.1 11.3 0.00 0.00 0.00 35 1011.9
20260508194547 54 249 6.1 13.0 0.00 0.00 0.00 36 1011.7
20260508193546 55 278 4.3 6.1 0.00 0.00 0.00 37 1011.6
20260508192645 54 191 1.7 2.6 0.00 0.00 0.00 37 1011.9
20260508191646 53 288 4.3 9.6 0.00 0.00 0.00 36 1011.9
20260508185747 53 245 5.2 7.0 0.00 0.00 0.00 37 1012.2
20260508184748 53 257 3.5 9.6 0.00 0.00 0.00 37 1012.1
20260508184645 53 255 7.0 13.0 0.00 0.00 0.00 37 1012.1
20260508183645 53 309 3.5 6.1 0.00 0.00 0.00 35 1012.2
20260508181645 53 294 3.5 6.1 0.00 0.00 0.00 36 1012.4
20260508180644 52 308 4.3 7.0 0.00 0.00 0.00 36 1012.2
20260508175744 53 262 4.3 7.8 0.00 0.00 0.00 36 1012.3
20260508174744 52 253 3.5 8.7 0.00 0.00 0.00 37 1012.4
20260508171745 52 334 2.6 6.1 0.00 0.00 0.00 36 1012.4
20260508165846 52 304 4.3 6.1 0.00 0.00 0.00 35 1012.2
20260508164844 52 306 2.6 7.0 0.00 0.00 0.00 34 1012.3
20260508164747 52 360 0.9 3.5 0.00 0.00 0.00 35 1012.3
20260508163745 51 221 6.1 10.4 0.00 0.00 0.00 34 1012.4
20260508161844 52 266 2.6 5.2 0.00 0.00 0.00 34 1012.3
20260508161744 52 249 5.2 9.6 0.00 0.00 0.00 34 1012.3
20260508154946 52 297 4.3 7.8 0.00 0.00 0.00 36 1012.0
20260508154900 52 331 3.5 5.2 0.00 0.00 0.00 36 1012.0
20260508151945 51 237 7.0 12.2 0.00 0.00 0.00 39 1012.4
20260508151901 51 280 3.5 7.8 0.00 0.00 0.00 38 1012.4
20260508150845 50 329 4.3 6.1 0.00 0.00 0.00 40 1012.4
20260508145846 51 326 2.6 3.5 0.00 0.00 0.00 41 1012.5
20260508145745 51 318 3.5 7.0 0.00 0.00 0.00 41 1012.4
20260508144746 51 248 3.5 5.2 0.00 0.00 0.00 43 1012.4
20260508144647 51 323 2.6 7.8 0.00 0.00 0.00 43 1012.4
20260508143644 50 310 5.2 7.0 0.00 0.00 0.00 44 1012.3
20260508143544 50 285 4.3 10.4 0.00 0.00 0.00 45 1012.4
20260508141546 49 290 3.5 6.1 0.00 0.00 0.00 47 1012.7
20260508140545 49 312 0.0 2.6 0.00 0.00 0.00 48 1012.7
20260508140445 49 321 4.3 6.1 0.00 0.00 0.00 47 1012.9
20260508135444 48 276 1.7 4.3 0.00 0.00 0.00 48 1012.9
20260508135344 48 348 0.9 1.7 0.00 0.00 0.00 48 1013.0
20260508134347 48 229 3.5 5.2 0.00 0.00 0.00 48 1013.2
20260508133345 47 281 4.3 7.8 0.00 0.00 0.00 50 1013.2
20260508132444 47 270 6.1 9.6 0.00 0.00 0.00 50 1013.2
20260508131445 46 261 3.5 7.8 0.00 0.00 0.00 51 1013.2
20260508131401 46 260 4.3 7.8 0.00 0.00 0.00 50 1013.2
20260508130443 46 335 3.5 6.1 0.00 0.00 0.00 51 1013.3
20260508125445 46 335 2.6 5.2 0.00 0.00 0.00 52 1013.3
20260508125344 46 265 2.6 5.2 0.00 0.00 0.00 52 1013.3
20260508124346 46 308 2.6 6.1 0.00 0.00 0.00 52 1013.3
20260508124245 45 269 3.5 8.7 0.00 0.00 0.00 52 1013.3
20260508123247 45 275 4.3 6.1 0.00 0.00 0.00 52 1013.2
20260508123145 45 242 5.2 11.3 0.00 0.00 0.00 53 1013.2
20260508122146 45 254 4.3 7.0 0.00 0.00 0.00 54 1013.2
20260508121146 45 333 2.6 7.0 0.00 0.00 0.00 55 1013.2
20260508120146 45 301 3.5 6.1 0.00 0.00 0.00 55 1013.2
20260508115147 44 275 2.6 6.1 0.00 0.00 0.00 56 1013.2
20260508114146 44 254 3.5 6.1 0.00 0.00 0.00 57 1013.0
20260508113201 44 262 0.9 2.6 0.00 0.00 0.00 57 1012.9
20260508111044 44 262 4.3 7.8 0.00 0.00 0.00 61 1012.8
20260508110946 43 249 4.3 8.7 0.00 0.00 0.00 62 1012.7
20260508110045 42 269 3.5 5.2 0.00 0.00 0.00 67 1012.6
20260508105944 41 326 2.6 5.2 0.00 0.00 0.00 68 1012.6
20260508104946 38 247 0.0 0.9 0.00 0.00 0.00 73 1012.5
20260508103945 37 149 0.0 1.7 0.00 0.00 0.00 74 1012.4
20260508102946 38 157 1.7 2.6 0.00 0.00 0.00 74 1012.3
20260508102844 38 189 1.7 2.6 0.00 0.00 0.00 74 1012.4
20260508101845 38 292 0.0 0.0 0.00 0.00 0.00 75 1012.2
20260508100847 38 8 0.9 1.7 0.00 0.00 0.00 77 1012.0
20260508095846 36 258 0.9 1.7 0.00 0.00 0.00 82 1012.0
20260508095744 36 302 1.7 2.6 0.00 0.00 0.00 83 1012.0
20260508094745 34 22 0.0 0.0 0.00 0.00 0.00 85 1011.9
20260508093843 34 337 0.0 0.0 0.00 0.00 0.00 84 1011.8
20260508092845 34 337 0.0 0.0 0.00 0.00 0.00 82 1011.8
20260508091846 34 225 0.0 0.0 0.00 0.00 0.00 80 1011.8
20260508090944 35 225 0.0 0.9 0.00 0.00 0.00 77 1011.8
20260508090844 35 225 0.0 0.0 0.00 0.00 0.00 77 1011.7
20260508090745 36 225 0.9 1.7 0.00 0.00 0.00 76 1011.6
20260508090647 36 206 0.0 1.7 0.00 0.00 0.00 76 1011.6
20260508085744 37 270 0.0 0.0 0.00 0.00 0.00 74 1011.6
20260508085644 37 270 0.0 0.0 0.00 0.00 0.00 74 1011.6
20260508084743 37 22 0.0 0.0 0.00 0.00 0.00 75 1011.6
20260508083744 36 337 0.0 0.0 0.00 0.00 0.00 78 1011.7
20260508082745 36 293 0.0 0.9 0.00 0.00 0.00 81 1011.5
20260508080744 33 180 0.0 0.0 0.00 0.00 0.00 86 1011.5
20260508074843 33 180 0.0 0.0 0.00 0.00 0.00 84 1011.1
20260508073845 33 180 0.0 0.0 0.00 0.00 0.00 83 1011.0
20260508072747 34 180 0.0 0.0 0.00 0.00 0.00 83 1011.0
20260508070744 34 180 0.0 0.9 0.00 0.00 0.00 83 1011.0
20260508064744 33 180 0.0 0.0 0.00 0.00 0.00 83 1011.0
20260508062744 35 180 0.0 0.0 0.00 0.00 0.00 79 1011.1
20260508061744 36 180 0.0 0.0 0.00 0.00 0.00 78 1011.2
20260508060745 36 180 0.0 0.0 0.00 0.00 0.00 78 1010.9
20260508055745 36 180 0.9 1.7 0.00 0.00 0.00 76 1011.2
20260508055646 36 180 1.7 1.7 0.00 0.00 0.00 76 1011.2
20260508054645 37 180 0.9 0.9 0.00 0.00 0.00 75 1011.4
20260508052645 37 180 1.7 1.7 0.00 0.00 0.00 75 1011.4
20260508051744 37 180 1.7 1.7 0.00 0.00 0.00 76 1011.6
20260508051644 37 180 1.7 2.6 0.00 0.00 0.00 76 1011.6
20260508050702 37 180 1.7 2.6 0.00 0.00 0.00 75 1011.7
20260508045646 38 180 0.9 1.7 0.00 0.00 0.00 74 1011.8
20260508044744 38 180 0.9 0.9 0.00 0.00 0.00 74 1011.8
20260508043743 38 180 1.7 1.7 0.00 0.00 0.00 74 1011.8
20260508042743 39 180 0.0 0.0 0.00 0.00 0.00 73 1011.8
20260508041746 39 180 0.9 1.7 0.00 0.00 0.00 73 1011.9
20260508040744 39 180 0.9 1.7 0.00 0.00 0.00 72 1012.1
20260508035826 39 180 1.7 1.7 0.00 0.00 0.00 73 1011.9
20260508034827 39 180 0.9 0.9 0.00 0.00 0.00 74 1012.1
20260508033827 40 180 0.9 0.9 0.00 0.00 0.00 74 1012.0
20260508032925 40 180 1.7 1.7 0.00 0.00 0.00 75 1012.2
20260508030942 41 180 0.0 0.0 0.00 0.00 0.00 73 1011.9
20260508030826 41 180 0.0 0.0 0.00 0.00 0.00 73 1011.9
20260508030727 41 180 0.0 0.0 0.00 0.00 0.00 73 1012.0
20260508025726 42 180 0.0 0.0 0.00 0.00 0.00 72 1011.9
20260508025626 42 180 0.0 0.0 0.00 0.00 0.00 72 1011.9
20260508024626 42 180 0.0 0.0 0.00 0.00 0.00 70 1011.9
20260508023627 43 180 0.0 0.0 0.00 0.00 0.00 67 1011.9
20260508022626 43 180 0.0 0.0 0.00 0.02 0.00 65 1011.9
20260508022525 43 180 0.0 0.0 0.00 0.02 0.00 65 1011.9
20260508021525 43 180 0.0 0.0 0.00 0.03 0.00 66 1011.8
20260508020528 43 180 0.0 0.0 0.00 0.03 0.00 65 1011.8
20260508014624 44 180 0.0 0.0 0.00 0.04 0.00 60 1011.5
20260508013626 44 180 0.0 0.0 0.00 0.04 0.00 58 1011.2
20260508012625 45 175 0.0 0.0 0.00 0.04 0.00 58 1011.1
20260508010626 46 315 0.0 0.9 0.00 0.05 0.00 53 1011.0
20260508005625 46 247 0.0 0.0 0.00 0.06 0.00 52 1011.0
20260508004625 47 266 0.9 1.7 0.00 0.07 0.00 49 1010.7
20260508003628 48 180 0.0 0.0 0.00 0.10 0.00 47 1010.8
20260508003527 48 180 0.0 0.0 0.00 0.10 0.00 47 1010.8
20260508003427 48 180 0.0 0.0 0.00 0.10 0.00 47 1010.8
20260508002525 49 180 0.0 0.0 0.00 0.10 0.00 45 1010.6
20260508001625 49 270 0.0 1.7 0.00 0.10 0.00 44 1010.5
20260508000626 50 22 0.0 0.0 0.00 0.10 0.00 42 1010.4
20260507235725 51 254 0.0 1.7 0.00 0.10 0.00 41 1010.3
20260507234727 51 268 1.7 2.6 0.00 0.10 0.00 40 1010.1
20260507233725 52 259 3.5 5.2 0.00 0.10 0.00 39 1010.1
20260507233625 52 326 1.7 2.6 0.00 0.10 0.00 39 1010.1
20260507232626 52 286 2.6 5.2 0.00 0.10 0.00 38 1010.2
20260507232527 52 301 1.7 4.3 0.00 0.10 0.00 39 1010.2
20260507231626 53 279 1.7 3.5 0.00 0.10 0.00 39 1010.1
20260507230626 53 327 1.7 3.5 0.00 0.10 0.00 39 1010.1
20260507225626 53 299 2.6 5.2 0.00 0.10 0.00 39 1010.1
20260507225529 53 328 2.6 5.2 0.00 0.10 0.00 39 1010.1
20260507224626 53 337 1.7 2.6 0.00 0.10 0.00 40 1010.1
20260507224525 53 337 0.9 1.7 0.00 0.10 0.00 40 1010.1
20260507224428 53 337 0.0 0.9 0.00 0.10 0.00 40 1010.1
20260507221425 53 331 1.7 2.6 0.00 0.10 0.00 38 1009.7
20260507220426 54 320 1.7 3.5 0.00 0.10 0.00 38 1009.7
20260507215525 54 327 0.9 2.6 0.00 0.10 0.00 37 1009.7
20260507215425 54 290 0.9 5.2 0.00 0.10 0.00 37 1009.6
20260507214426 55 271 2.6 6.1 0.00 0.10 0.00 37 1009.4